Location: Caltech
(34.1382°N, 118.1253°W)
Time: 10:33:32
(UTC-07:00)

SO-67 - Visible Passes

Search period start: 16 August 2017 00:00
Search period end: 26 August 2017 00:00
Orbit: 403 x 406 km, 97.1° (Epoch: 16 August)

Date Brightness Start Highest point End Pass type
(mag) Time Alt. Az. Time Alt. Az. Time Alt. Az.
17 Aug ? 20:09:09 10° WSW 20:09:49 10° W 20:10:29 10° W visible
19 Aug ? 20:02:44 10° WSW 20:04:13 13° W 20:05:42 10° WNW visible
21 Aug ? 19:56:39 10° SW 19:58:35 15° W 20:00:32 10° WNW visible
